Location: Jastrzębia Góra
(54.8312°N, 18.3037°E)
Time: 06:54:25
(UTC+02:00)

ISS - Pass Details

Date: 27 January 2019
Orbit: 411 x 421 km, 51.6° (Epoch: 19 October)

Event Time Altitude Azimuth Distance (km) Brightness Sun altitude
Rises 18:21:18 0° 243° (WSW) 2,413 1.4 -18.0°
Reaches altitude 10° 18:23:29 10° 236° (SW) 1,549 0.0 -18.4°
Maximum altitude 18:26:46 40° 165° (SSE) 663 -2.9 -18.8°
Enters shadow 18:27:03 39° 152° (SSE) 674 -3.0 -18.9°
